Weather History for Minchumina, AK

Change the Weather History Date:

Friday, August 10, 2012

  Actual Average Record
Temperature  
Mean Temperature 56 °F -  
Max Temperature 69 °F 61 °F 82 °F (2003)
Min Temperature 44 °F 48 °F 39 °F (2002)
Degree Days  
Heating Degree Days 8    
Growing Degree Days 6 (Base 50)    
Moisture  
Dew Point 48 °F    
Average Humidity 76    
Maximum Humidity 100    
Minimum Humidity 43    
Precipitation  
Precipitation 0.00 in - - ()
Sea Level Pressure  
Sea Level Pressure 30.02 in    
Wind  
Wind Speed 0 mph (SW)    
Max Wind Speed 5 mph    
Max Gust Speed -    
Visibility 10 miles    
Events      
Averages and records for this station are not official NWS values.
T = Trace of Precipitation, MM = Missing Value Source: NWS Daily Summary

Daily Weather History Graph

Daily Weather History Graph

Search for Another Location

Airport:

Trip Planner

Search our weather history database for the weather conditions in past years. The results will help you decide how hot, cold, wet, or windy it might be!

Date:

Astronomy

Aug. 10, 2012 Rise Set
Actual Time 5:48 AM AKDT 10:37 PM AKDT
Civil Twilight 4:39 AM AKDT 11:45 PM AKDT
Nautical Twilight 2:46 AM AKDT 1:41 AM AKDT
Astronomical Twilight Sun does not rise Sun does not rise
Moon 11:40 PM AKDT (8/10) 6:12 PM AKDT (8/10)
Length of Visible Light 19h 06m
Length of Day
16h 48m
Last Quarter, 40% of the Moon is Illuminated
Aug 10
Last Quarter
Aug 17
New
Aug 24
First Quarter
Aug 31
Full
Sep 8
Last Quarter

Hourly Weather History & Observations

Time (AKDT) Temp. Dew Point Humidity Pressure Visibility Wind Dir Wind Speed Gust Speed Precip Events Conditions
12:16 AM 51.8 °F 46.4 °F 82% 29.99 in 10.0 mi Calm Calm - N/A   Clear
12:36 AM 51.8 °F 46.4 °F 82% 29.99 in 10.0 mi Calm Calm - N/A   Clear
12:56 AM 51.8 °F 46.4 °F 82% 30.00 in 10.0 mi Calm Calm - N/A   Clear
1:16 AM 50.0 °F 46.4 °F 87% 30.00 in 10.0 mi Calm Calm - N/A   Clear
1:36 AM 50.0 °F 46.4 °F 87% 30.00 in 10.0 mi Calm Calm - N/A   Clear
1:56 AM 48.2 °F 46.4 °F 93% 30.00 in 10.0 mi Calm Calm - N/A   Clear
2:16 AM 48.2 °F 46.4 °F 93% 30.01 in 10.0 mi Calm Calm - N/A   Clear
2:36 AM 48.2 °F 44.6 °F 87% 30.00 in 10.0 mi Calm Calm - N/A   Clear
2:56 AM 48.2 °F 44.6 °F 87% 30.01 in 10.0 mi Calm Calm - N/A   Clear
3:16 AM 48.2 °F 44.6 °F 87% 30.01 in 10.0 mi Calm Calm - N/A   Clear
3:36 AM 46.4 °F 44.6 °F 93% 30.01 in 10.0 mi Calm Calm - N/A   Clear
3:56 AM 46.4 °F 44.6 °F 93% 30.02 in 10.0 mi Calm Calm - N/A   Clear
4:16 AM 46.4 °F 44.6 °F 93% 30.02 in 10.0 mi Calm Calm - N/A   Clear
4:36 AM 46.4 °F 44.6 °F 93% 30.02 in 10.0 mi Calm Calm - N/A   Clear
4:56 AM 46.4 °F 44.6 °F 93% 30.02 in 10.0 mi Calm Calm - N/A   Clear
5:16 AM 46.4 °F 44.6 °F 93% 30.02 in 10.0 mi Calm Calm - N/A   Clear
5:36 AM 46.4 °F 44.6 °F 93% 30.02 in 10.0 mi Calm Calm - N/A   Clear
5:56 AM 44.6 °F 44.6 °F 100% 30.03 in 10.0 mi Calm Calm - N/A   Clear
6:16 AM 44.6 °F 42.8 °F 93% 30.03 in 10.0 mi Calm Calm - N/A   Clear
6:36 AM 44.6 °F 42.8 °F 93% 30.03 in 10.0 mi Calm Calm - N/A   Clear
6:56 AM 46.4 °F 44.6 °F 93% 30.04 in 10.0 mi Calm Calm - N/A   Clear
7:16 AM 46.4 °F 44.6 °F 93% 30.04 in 2.0 mi Calm Calm - N/A   Clear
7:36 AM 46.4 °F 44.6 °F 93% 30.04 in 0.2 mi Calm Calm - N/A   Overcast
7:56 AM 46.4 °F 44.6 °F 93% 30.05 in 3.0 mi Calm Calm - N/A   Mostly Cloudy
8:16 AM 46.4 °F 46.4 °F 100% 30.05 in 10.0 mi Calm Calm - N/A   Scattered Clouds
8:36 AM 48.2 °F 46.4 °F 93% 30.05 in 10.0 mi Calm Calm - N/A   Clear
8:56 AM 48.2 °F 46.4 °F 93% 30.05 in 10.0 mi Calm Calm - N/A   Clear
9:16 AM 50.0 °F 48.2 °F 94% 30.05 in 10.0 mi Calm Calm - N/A   Clear
9:36 AM 50.0 °F 48.2 °F 94% 30.05 in 10.0 mi Calm Calm - N/A   Clear
9:56 AM 51.8 °F 48.2 °F 88% 30.05 in 10.0 mi Calm Calm - N/A   Clear
10:16 AM 51.8 °F 48.2 °F 88% 30.05 in 10.0 mi Calm Calm - N/A   Clear
10:36 AM 53.6 °F 50.0 °F 88% 30.05 in 10.0 mi Calm Calm - N/A   Clear
10:56 AM 55.4 °F 51.8 °F 88% 30.05 in 10.0 mi SSW 3.5 mph - N/A   Clear
11:16 AM 55.4 °F 48.2 °F 77% 30.05 in 10.0 mi Calm Calm - N/A   Clear
11:36 AM 57.2 °F 46.4 °F 67% 30.05 in 10.0 mi Calm Calm - N/A   Clear
11:56 AM 59.0 °F 48.2 °F 67% 30.05 in 10.0 mi Calm Calm - N/A   Clear
12:16 PM 60.8 °F 48.2 °F 63% 30.05 in 10.0 mi Calm Calm - N/A   Clear
12:36 PM 62.6 °F 46.4 °F 55% 30.05 in 10.0 mi Calm Calm - N/A   Clear
12:56 PM 64.4 °F 50.0 °F 59% 30.04 in 10.0 mi Calm Calm - N/A   Clear
1:16 PM 66.2 °F 50.0 °F 56% 30.04 in 10.0 mi Calm Calm - N/A   Scattered Clouds
1:36 PM 66.2 °F 50.0 °F 56% 30.04 in 10.0 mi Calm Calm - N/A   Scattered Clouds
1:56 PM 66.2 °F 53.6 °F 64% 30.04 in 10.0 mi Calm Calm - N/A   Scattered Clouds
2:16 PM 64.4 °F 51.8 °F 64% 30.04 in 10.0 mi Calm Calm - N/A   Partly Cloudy
2:36 PM 68.0 °F 53.6 °F 60% 30.03 in 10.0 mi Calm Calm - N/A   Clear
2:56 PM 66.2 °F 51.8 °F 60% 30.03 in 10.0 mi Calm Calm - N/A   Clear
3:16 PM 66.2 °F 50.0 °F 56% 30.03 in 10.0 mi Calm Calm - N/A   Scattered Clouds
3:36 PM 66.2 °F 51.8 °F 60% 30.03 in 10.0 mi Calm Calm - N/A   Mostly Cloudy
3:56 PM 66.2 °F 51.8 °F 60% 30.03 in 10.0 mi Calm Calm - N/A   Mostly Cloudy
4:16 PM 69.8 °F 51.8 °F 53% 30.02 in 10.0 mi Calm Calm - N/A   Mostly Cloudy
4:36 PM 69.8 °F 46.4 °F 43% 30.02 in 10.0 mi Calm Calm - N/A   Mostly Cloudy
4:56 PM 69.8 °F 48.2 °F 46% 30.02 in 10.0 mi Calm Calm - N/A   Mostly Cloudy
5:16 PM 69.8 °F 46.4 °F 43% 30.01 in 10.0 mi Calm Calm - N/A   Mostly Cloudy
5:36 PM 69.8 °F 46.4 °F 43% 30.01 in 10.0 mi WSW 4.6 mph - N/A   Mostly Cloudy
5:56 PM 66.2 °F 50.0 °F 56% 30.02 in 10.0 mi Calm Calm - N/A   Overcast
6:36 PM 66.2 °F 53.6 °F 64% 30.01 in 10.0 mi Calm Calm - N/A   Overcast
6:56 PM 66.2 °F 51.8 °F 60% 30.01 in 10.0 mi Calm Calm - N/A   Mostly Cloudy
7:16 PM 66.2 °F 48.2 °F 52% 30.01 in 10.0 mi Calm Calm - N/A   Mostly Cloudy
7:36 PM 64.4 °F 53.6 °F 68% 30.00 in 10.0 mi Calm Calm - N/A   Overcast
7:56 PM 62.6 °F 53.6 °F 72% 30.00 in 10.0 mi Calm Calm - N/A   Overcast
8:16 PM 62.6 °F 53.6 °F 72% 30.00 in 10.0 mi Calm Calm - N/A   Overcast
8:36 PM 62.6 °F 51.8 °F 68% 30.00 in 10.0 mi Calm Calm - N/A   Overcast
8:56 PM 60.8 °F 51.8 °F 72% 30.00 in 10.0 mi Calm Calm - N/A   Mostly Cloudy
9:16 PM 60.8 °F 50.0 °F 68% 30.00 in 10.0 mi Calm Calm - N/A   Overcast
9:36 PM 60.8 °F 51.8 °F 72% 30.01 in 10.0 mi Calm Calm - N/A   Overcast
9:56 PM 60.8 °F 50.0 °F 68% 30.01 in 10.0 mi Calm Calm - N/A   Overcast
10:16 PM 60.8 °F 51.8 °F 72% 30.01 in 10.0 mi Calm Calm - N/A   Overcast
10:36 PM 59.0 °F 50.0 °F 72% 30.02 in 10.0 mi Calm Calm - N/A   Overcast
10:56 PM 57.2 °F 48.2 °F 72% 30.02 in 10.0 mi Calm Calm - N/A   Overcast
11:16 PM 57.2 °F 48.2 °F 72% 30.02 in 10.0 mi Calm Calm - N/A   Scattered Clouds
11:36 PM 57.2 °F 46.4 °F 67% 30.02 in 10.0 mi Calm Calm - N/A   Scattered Clouds
11:56 PM 55.4 °F 48.2 °F 77% 30.03 in 10.0 mi Calm Calm - N/A   Clear